This is the latest recevied weather packets stored in our database for station/object N9BID. If no packets are shown the sender has not sent any weather packets the latest 10 day(s).
| Time | Temp. | Humidity | Pressure | Rain* | Wind** | Luminosity | Snow |
|---|---|---|---|---|---|---|---|
| 1777577901 | 7.78° C | 57% | 1007.8 hPa | 0 mm | - | 356 W/m² | - |
| 1777577597 | 7.78° C | 60% | 1007.7 hPa | 0 mm | - | 322 W/m² | - |
| 1777577295 | 7.78° C | 60% | 1007.9 hPa | 0 mm | - | 318 W/m² | - |
| 1777576991 | 7.22° C | 60% | 1007.7 hPa | 0 mm | - | 309 W/m² | - |
| 1777576688 | 7.22° C | 59% | 1007.9 hPa | 0 mm | - | 285 W/m² | - |
| 1777576386 | 7.78° C | 58% | 1007.9 hPa | 0 mm | - | 290 W/m² | - |
| 1777576083 | 7.22° C | 58% | 1008 hPa | 0 mm | - | 306 W/m² | - |
| 1777575779 | 7.22° C | 59% | 1007.9 hPa | 0 mm | - | 323 W/m² | - |
| 1777575475 | 7.22° C | 60% | 1007.8 hPa | 0 mm | - | 364 W/m² | - |
| 1777575171 | 6.67° C | 59% | 1008 hPa | 0 mm | - | 299 W/m² | - |
| 1777574867 | 7.22° C | 61% | 1008 hPa | 0 mm | - | 228 W/m² | - |
| 1777574565 | 7.78° C | 58% | 1007.9 hPa | 0 mm | - | 293 W/m² | - |
| 1777574261 | 7.78° C | 61% | 1007.9 hPa | 0 mm | - | 447 W/m² | - |
| 1777573956 | 7.78° C | 60% | 1008 hPa | 0 mm | - | 310 W/m² | - |
| 1777573651 | 7.78° C | 66% | 1007.8 hPa | 0 mm | - | 629 W/m² | - |
| 1777573348 | 7.22° C | 62% | 1008.1 hPa | 0 mm | - | 567 W/m² | - |
| 1777573043 | 7.22° C | 63% | 1007.8 hPa | 0 mm | - | 300 W/m² | - |
| 1777572741 | 6.67° C | 64% | 1008 hPa | 0 mm | - | 356 W/m² | - |
| 1777572435 | 6.67° C | 64% | 1007.9 hPa | 0 mm | - | 211 W/m² | - |
| 1777572132 | 6.67° C | 65% | 1008.2 hPa | 0 mm | - | 262 W/m² | - |
| 1777571827 | 7.22° C | 63% | 1008.1 hPa | 0 mm | - | 318 W/m² | - |
| 1777571523 | 6.67° C | 62% | 1008.1 hPa | 0 mm | - | 785 W/m² | - |
| 1777571220 | 6.67° C | 66% | 1008.2 hPa | 0 mm | - | 304 W/m² | - |
| 1777570916 | 6.67° C | 67% | 1008.2 hPa | 0 mm | - | 265 W/m² | - |
| 1777570612 | 6.11° C | 64% | 1008.2 hPa | 0 mm | - | 236 W/m² | - |
* Rain latest hour (hover to see other rain measurements)
** Current wind speed in m/s (hover to see current wind gust speed)